Content
SEND FEEDBACK

Daily
Averages
Monthly
Summary
Philippines

MANILA, PHILIPPINES


Home > Asia > Philippines
Elevation: 49 feet     Latitude: 14 31N     Longitude: 121 00E

WEATHER
 
SELECT A DAY
Number of Records: 178,035;   Date Range: 7/1/96 - 11/22/14
 
SHARE

PRINT THIS DATA

[ ← Previous Day ]
WEATHER ALMANAC - MARCH 22, 2013
[ Next Day → ]
[ °C ]   °F
Weather ElementAverageHighLow
Temperature79 °F86 °F (10:00 am) (2:00 am)
Dewpoint72.2 °F84.2 °F (10:00 am) (7:00 pm)
Humidity79.4 %100 % (1:00 pm)67 % (8:00 am)
Barometer29.83 in29.88 in (8:00 am)29.58 in (11:00 am)
Wind Speed4.4 mph10.4 mph (12:34 pm)
Weather ElementAverage
Visibility5.9 mi
Wind DirectionSE (129.7 °)

Weather ElementTotal
Precipitation---
Heating Degree Days22 (Base 65)
Averaged from 32 records on March 22, 2013
WEATHER CONDITIONS BREAKOUT
WIND DIRECTION BREAKOUT
WEATHER BY HOUR - MARCH 22, 2013
[ °C ]   °F
Local TimeTemperatureDewpointHumidityBarometerVisibilityWind DirectionWind SpeedGust SpeedPrecipitationEventsConditions
1:00 AM80.6 °F71.6 °F74 %29.83 in6.2 miSE (130°)3.5 mphPartly Cloudy
2:00 AM0.0 °F0.0 °F29.81 in6.0 miCalmHaze
2:00 AM78.8 °F73.4 °F83 %29.80 in6.2 miCalmPartly Cloudy
3:00 AM78.8 °F73.4 °F83 %29.80 in6.2 miWNW (290°)3.5 mphScattered Clouds
4:00 AM80.6 °F69.8 °F70 %29.77 in6.2 miVariable2.3 mphMostly Cloudy
5:00 AM63.0 °F6.0 miNorth (10°)2.2 mph
5:00 AM80.6 °F69.8 °F70 %29.80 in6.2 miVariable2.3 mphMostly Cloudy
6:00 AM80.6 °F71.6 °F74 %29.83 in6.2 miSE (130°)4.6 mphOvercast
6:20 AM78.8 °F73.4 °F83 %29.83 in5.6 miENE (60°)5.8 mphRainLight Rain Showers
7:00 AM78.8 °F73.4 °F83 %29.83 in6.2 miEast (80°)3.5 mphOvercast
8:00 AM82.0 °F73.0 °F67 %29.88 in6.0 miCalmHaze
8:00 AM82.4 °F73.4 °F74 %29.86 in5.6 miCalmMostly Cloudy
9:00 AM82.4 °F73.4 °F74 %29.86 in6.2 miWNW (300°)6.9 mphMostly Cloudy
10:00 AM86.0 °F84.2 °F94 %29.86 in6.2 miWSW (240°)3.5 mphMostly Cloudy
11:00 AM85.0 °F76.0 °F68 %29.58 in6.0 miWNW (290°)4.5 mphHaze
11:00 AM86.0 °F75.2 °F70 %29.86 in6.2 miWNW (290°)5.8 mphMostly Cloudy
12:00 PM84.2 °F75.2 °F74 %29.86 in6.2 miWNW (290°)9.2 mphMostly Cloudy
12:34 PM80.6 °F77.0 °F89 %29.83 in5.6 miESE (110°)10.4 mphRainLight Rain Showers
1:00 PM77.0 °F77.0 °F100 %29.83 in5.0 miNE (40°)10.4 mphRainRain
2:00 PM78.8 °F77.0 °F94 %29.83 in5.6 miNorth (350°)8.1 mphRainLight Rain
3:00 PM80.6 °F77.0 °F89 %29.80 in5.6 miNNE (30°)5.8 mphRainLight Rain
4:00 PM80.6 °F78.8 °F94 %29.80 in5.0 miNNE (20°)4.6 mphRainLight Rain
5:00 PM83.0 °F77.0 °F77 %29.81 in5.0 miEast (90°)4.5 mphRainLight Rain
5:00 PM82.4 °F77.0 °F84 %29.80 in5.0 miEast (90°)4.6 mphRainLight Rain
6:00 PM82.4 °F75.2 °F79 %29.83 in6.2 miEast (80°)4.6 mphOvercast
7:00 PM82.4 °F75.2 °F79 %29.83 in6.2 miESE (120°)2.3 mphOvercast
8:00 PM82.0 °F76.0 °F76 %29.86 in6.0 miSSE (150°)2.2 mphHaze
8:00 PM82.4 °F75.2 °F79 %29.86 in6.2 miSSE (150°)2.3 mphOvercast
9:00 PM82.4 °F75.2 °F79 %29.86 in6.2 miSSW (200°)4.6 mphOvercast
10:00 PM82.4 °F75.2 °F79 %29.86 in6.2 miSE (130°)4.6 mphMostly Cloudy
11:00 PM83.0 °F74.0 °F68 %29.88 in6.0 miESE (110°)6.7 mphHaze
11:00 PM82.4 °F73.4 °F74 %29.86 in6.2 miESE (110°)6.9 mphMostly Cloudy
Hourly data recorded from RPLL, located miles away from Manila, Philippines







STORIES FROM OUR PARTNERS